Stations météo

réclame
Mon MeteoGroup
Grenoble/St.Geoirs, France (7486): Température de l'air & dewpoint: 17.04.2019 22:00:00 - 23.04.2019 22:00:00 (CEST)Grenoble/St.Geoirs, France (7486): Température de l'air 5cm: 17.04.2019 22:00:00 - 23.04.2019 22:00:00 (CEST)Grenoble/St.Geoirs, France (7486): Température de l'air -20cm & Température de l'air -100cm: 17.04.2019 22:00:00 - 23.04.2019 22:00:00 (CEST)Grenoble/St.Geoirs, France (7486): Vitesse du vent & gusts: 17.04.2019 22:00:00 - 23.04.2019 22:00:00 (CEST)Grenoble/St.Geoirs, France (7486): Direction du vent: 17.04.2019 22:00:00 - 23.04.2019 22:00:00 (CEST)Grenoble/St.Geoirs, France (7486): reduced air pressure: 17.04.2019 22:00:00 - 23.04.2019 22:00:00 (CEST)Grenoble/St.Geoirs, France (7486): visibility: 17.04.2019 22:00:00 - 23.04.2019 22:00:00 (CEST)Grenoble/St.Geoirs, France (7486): Ensoleillement: 17.04.2019 22:00:00 - 23.04.2019 22:00:00 (CEST)Grenoble/St.Geoirs, France (7486): Quantités de précipitations: 17.04.2019 22:00:00 - 23.04.2019 22:00:00 (CEST)
Date & Time tt [°C] td [°C] tt 5cm [°C] tt -20cm [°C] tt -100cm [°C] ff [km/h] ff [knt] fx [km/h] fx [knt] dd ppp [hPa] vv [km] sd [min] rr [mm]
23.04.2019 22:00:00 13,7 10,3 12,2 14,2 11,0 13 7 27 14 SW 1000,3 39 0 0,0
23.04.2019 21:00:00 14,5 10,1 13,8 14,1 11,0 15 8 27 15 SW 999,5 42 9 0,0
23.04.2019 20:00:00 15,4 9,5 15,1 14,1 10,9 6 4 20 11 SSW 998,4 46 10 0,0
23.04.2019 19:00:00 16,4 9,6 16,8 13,9 10,9 12 6 20 11 SW 997,9 46 7 0,0
23.04.2019 18:00:00 16,9 9,3 17,1 13,8 10,9 11 6 25 13 SW 997,4 44 0 0,0
23.04.2019 17:00:00 17,6 9,2 18,2 13,6 10,9 14 8 31 17 S 997,5 30 0 0,0
23.04.2019 16:00:00 18,3 9,1 19,5 13,5 10,9 23 13 37 20 SW 997,3 35 19 0,0
23.04.2019 15:00:00 19,6 9,5 25,2 13,3 10,9 14 7 29 15 WSW 997,0 40 60 0,0
23.04.2019 14:00:00 18,2 9,5 22,1 13,3 10,9 7 4 26 14 WSW 997,3 15 54 0,0
23.04.2019 13:00:00 16,2 9,4 21,3 13,3 10,9 10 5 19 10 WSW 997,9 15 57 0,0
23.04.2019 12:00:00 15,7 10,0 14,6 13,3 10,9 8 4 16 9 W 998,4 42 38 0,0
23.04.2019 11:00:00 13,1 9,7 14,6 13,3 10,9 5 3 9 5 NNW 998,7 14 0 0,0
23.04.2019 10:00:00 12,8 9,6 13,4 13,4 10,9 5 3 14 8 WNW 999,2 20 0 0,0
23.04.2019 09:00:00 12,4 8,9 11,2 13,4 10,9 9 5 16 9 SW 999,3 22 0 0,0
23.04.2019 08:00:00 11,6 9,2 10,6 13,5 10,8 17 9 22 12 WSW 998,9 13 0 0,2
23.04.2019 07:00:00 12,0 8,3 10,7 13,5 10,8 8 4 11 6 W 998,6 16 0 0,0
23.04.2019 06:00:00 12,6 7,3 11,3 13,6 10,8 8 4 16 8 WSW 998,6 18 0 0,0
23.04.2019 05:00:00 13,9 6,3 12,1 13,7 10,8 10 6 19 11 SW 998,8 18 0 0,0
23.04.2019 04:00:00 14,7 5,7 13,0 13,7 10,8 7 4 18 10 SSW 999,2 19 0 0,0
23.04.2019 03:00:00 15,2 5,1 13,9 13,8 10,8 5 3 21 11 SW 999,3 20 0 0,0
23.04.2019 02:00:00 15,7 4,7 13,6 13,8 10,8 7 4 29 16 WSW 999,2 24 0 0,0
23.04.2019 01:00:00 16,6 4,6 15,5 13,8 10,7 19 11 34 18 SSW 999,1 26 0 0,0
23.04.2019 00:00:00 17,7 5,0 13,0 13,8 10,8 19 10 37 20 SSW 999,1 26 0 0,0
22.04.2019 23:00:00 14,3 9,7 12,7 13,8 10,8 8 5 10 5 E 999,3 21 0 0,0
22.04.2019 22:00:00 14,8 9,4 12,8 13,8 10,7 5 3 7 4 ENE 999,2 19 0 0,0
22.04.2019 21:00:00 16,9 7,8 13,4 13,7 10,7 4 2 10 5 W 998,5 30 0 0,0
22.04.2019 20:00:00 18,9 7,6 16,8 13,6 10,7 8 4 10 5 SSW 998,7 33 0 0,0
22.04.2019 19:00:00 19,9 7,3 19,0 13,4 10,8 3 2 12 6 W 998,7 21 0 0,0
22.04.2019 18:00:00 20,7 9,3 21,3 13,2 10,7 7 4 17 9 NNW 998,8 20 0 0,0
22.04.2019 17:00:00 21,6 9,8 24,1 13,0 10,7 12 7 16 9 NNW 999,1 31 0 0,0
22.04.2019 16:00:00 23,2 7,3 26,4 12,8 10,7 6 3 15 8 N 999,7 34 52 0,0
22.04.2019 15:00:00 23,6 5,5 30,0 12,6 10,7 5 3 18 10 WSW 1000,5 20 60 0,0
22.04.2019 14:00:00 22,0 7,4 27,3 12,5 10,7 10 5 18 10 NW 1001,4 18 60 0,0
22.04.2019 13:00:00 21,0 8,3 24,3 12,5 10,7 4 2 9 5 E 1002,5 19 51 0,0
22.04.2019 12:00:00 18,8 9,0 22,3 12,5 10,7 4 2 11 6 W 1003,8 20 58 0,0
22.04.2019 11:00:00 15,8 7,8 18,6 12,5 10,7 3 2 9 5 NW 1005,0 20 16 0,0
22.04.2019 10:00:00 13,7 7,2 14,7 12,6 10,6 3 1 10 5 W 1005,7 19 25 0,0
22.04.2019 09:00:00 10,4 7,5 8,3 12,7 10,6 3 1 7 4 SSW 1007,1 20 0 0,0
22.04.2019 08:00:00 8,1 6,9 4,5 12,8 10,6 5 3 7 4 ESE 1007,8 9 0 0,0
22.04.2019 07:00:00 6,4 4,6 3,4 12,9 10,6 5 3 7 4 E 1008,5 9 0 0,0
22.04.2019 06:00:00 7,8 6,1 4,5 12,9 10,6 2 1 9 5 E 1008,7 11 0 0,0
22.04.2019 05:00:00 9,6 7,4 6,0 13,0 10,6 3 2 9 5 WNW 1009,3 16 0 0,0
22.04.2019 04:00:00 10,7 7,9 9,5 13,0 10,6 6 3 13 7 N 1009,9 16 0 0,0
22.04.2019 03:00:00 12,0 7,9 10,6 13,1 10,6 14 8 24 13 NE 1010,5 15 0 0,0
22.04.2019 02:00:00 11,9 7,6 10,4 13,1 10,5 11 6 15 8 ESE 1011,5 24 0 0,0
22.04.2019 01:00:00 11,9 7,4 9,3 13,2 10,6 4 2 9 5 E 1012,4 22 0 0,0
22.04.2019 00:00:00 12,9 6,9 10,7 13,2 10,5 4 2 9 5 ESE 1012,3 30 0 0,0
21.04.2019 23:00:00 13,2 7,0 10,9 13,2 10,5 5 3 11 6 S 1012,7 32 0 0,0
21.04.2019 22:00:00 14,3 6,9 9,2 13,2 10,5 6 3 14 8 SSE 1013,2 34 0 0,0
21.04.2019 21:00:00 13,6 6,7 9,7 13,2 10,5 3 1 12 6 N 1013,6 41 0 0,0
21.04.2019 20:00:00 16,3 7,2 14,3 13,1 10,5 11 6 18 10 WSW 1012,7 39 0 0,0
21.04.2019 19:00:00 18,1 6,3 17,3 13,0 10,5 8 5 18 10 NW 1012,6 19 0 0,0
21.04.2019 18:00:00 18,2 7,0 18,5 12,9 10,5 10 6 23 12 N 1013,0 18 0 0,0
21.04.2019 17:00:00 19,2 6,6 21,1 12,8 10,5 16 9 23 13 NE 1013,2 40 20 0,0
21.04.2019 16:00:00 19,9 5,2 22,6 12,7 10,5 13 7 27 15 NE 1013,6 26 35 0,0
21.04.2019 15:00:00 20,1 7,1 21,2 12,6 10,4 10 5 23 12 NE 1014,5 20 37 0,0
21.04.2019 14:00:00 17,9 5,8 19,1 12,6 10,4 12 6 22 12 NE 1015,8 38 0 0,0
21.04.2019 13:00:00 17,2 6,7 18,1 12,7 10,4 7 4 30 16 ENE 1016,6 36 0 0,0
21.04.2019 12:00:00 16,3 6,7 17,8 12,7 10,4 11 6 18 10 ENE 1017,7 33 0 0,0
21.04.2019 11:00:00 15,1 6,9 14,6 12,7 10,4 3 2 17 9 E 1017,9 32 0 0,0
21.04.2019 10:00:00 13,7 7,0 12,6 12,8 10,4 5 3 22 12 E 1018,5 20 0 0,0
21.04.2019 09:00:00 12,1 7,0 11,0 12,9 10,4 4 2 18 10 ENE 1018,8 18 0 0,0
21.04.2019 08:00:00 11,2 5,9 9,8 13,0 10,4 9 5 19 11 E 1019,4 22 0 0,0
21.04.2019 07:00:00 10,6 5,8 9,4 13,1 10,3 8 4 14 8 E 1019,1 22 0 0,0
21.04.2019 06:00:00 11,0 4,9 9,2 13,2 10,3 8 5 27 15 SE 1019,3 27 0 0,0
21.04.2019 05:00:00 11,2 5,3 9,9 13,2 10,3 7 4 16 9 ENE 1019,5 20 0 0,0
21.04.2019 04:00:00 11,1 5,2 8,8 13,3 10,3 13 7 17 9 E 1020,2 17 0 0,0
21.04.2019 03:00:00 10,0 5,6 8,3 13,4 10,3 8 4 14 8 E 1020,8 22 0 0,0
21.04.2019 02:00:00 12,0 4,9 8,7 13,4 10,3 4 2 13 7 NNW 1020,9 23 0 0,0
21.04.2019 01:00:00 12,7 4,9 9,7 13,5 10,3 3 2 14 8 NW 1021,1 27 0 0,0
21.04.2019 00:00:00 14,5 4,5 11,8 13,5 10,3 5 3 20 11 W 1020,7 29 0 0,0
20.04.2019 23:00:00 15,0 6,3 12,0 13,5 10,3 10 5 21 12 WSW 1020,7 28 0 0,0
20.04.2019 22:00:00 16,6 5,8 11,7 13,4 10,2 3 2 9 5 WSW 1020,0 29 0 0,0
20.04.2019 21:00:00 16,5 6,6 13,5 13,3 10,2 7 4 22 12 N 1019,8 40 0 0,0
20.04.2019 20:00:00 18,4 5,9 15,8 13,2 10,2 9 5 16 9 NNW 1019,1 35 6 0,0
20.04.2019 19:00:00 21,2 5,5 21,8 12,9 10,2 7 4 14 8 NNW 1018,7 22 31 0,0
20.04.2019 18:00:00 21,5 5,0 21,8 12,7 10,2 5 3 16 8 N 1018,8 23 42 0,0
20.04.2019 17:00:00 21,7 4,7 23,8 12,5 10,2 11 6 20 11 NNE 1019,3 33 54 0,0
20.04.2019 16:00:00 22,8 3,8 28,9 12,3 10,1 6 3 19 10 NW 1019,9 18 60 0,0
20.04.2019 15:00:00 22,4 3,5 29,0 12,1 10,1 5 3 11 6 NE 1020,9 60 60 0,0
20.04.2019 14:00:00 21,7 4,7 27,6 12,0 10,1 5 3 12 6 NNE 1021,6 19 60 0,0
20.04.2019 13:00:00 20,5 6,4 26,0 12,0 10,1 4 2 11 6 N 1022,6 10 60 0,0
20.04.2019 12:00:00 19,5 4,8 22,9 12,0 10,1 4 2 20 11 W 1023,3 25 60 0,0
20.04.2019 11:00:00 18,1 6,0 20,1 12,1 10,1 10 5 19 10 ENE 1024,1 16 60 0,0
20.04.2019 10:00:00 16,2 7,4 16,5 12,2 10,1 13 7 20 11 ENE 1024,4 15 60 0,0
20.04.2019 09:00:00 13,6 6,7 12,0 12,3 10,1 16 9 20 11 E 1025,4 28 60 0,0
20.04.2019 08:00:00 9,9 5,5 5,9 12,4 10,1 13 7 19 10 E 1025,9 20 52 0,0
20.04.2019 07:00:00 7,1 2,8 4,9 12,5 10,0 14 8 19 10 E 1026,1 19 0 0,0
20.04.2019 06:00:00 6,7 2,9 4,4 12,6 10,0 11 6 18 10 E 1026,3 20 0 0,0
20.04.2019 05:00:00 8,8 3,0 5,7 12,7 10,0 7 4 13 7 ENE 1026,3 19 0 0,0
20.04.2019 04:00:00 8,2 3,6 4,7 12,7 10,0 7 4 11 6 NE 1026,4 25 0 0,0
20.04.2019 03:00:00 9,8 3,7 6,2 12,8 10,0 2 1 17 9 E 1026,3 26 0 0,0
20.04.2019 02:00:00 10,9 3,9 6,9 12,9 10,0 9 5 13 7 N 1026,7 18 0 0,0
20.04.2019 01:00:00 13,2 4,1 9,2 12,9 10,0 5 3 19 11 WNW 1026,5 31 0 0,0
20.04.2019 00:00:00 14,5 4,2 10,1 12,9 10,0 5 3 16 9 WNW 1026,1 30 0 0,0
19.04.2019 23:00:00 16,4 5,0 10,3 12,9 10,0 5 3 18 10 WSW 1025,6 29 0 0,0
19.04.2019 22:00:00 14,4 6,2 9,4 12,8 9,9 5 3 16 9 NW 1025,6 23 0 0,0
19.04.2019 21:00:00 16,3 5,6 9,8 12,7 10,0 6 3 10 6 S 1024,9 28 5 0,0
19.04.2019 20:00:00 19,6 5,6 17,9 12,5 9,9 8 4 16 9 W 1023,6 19 60 0,0
19.04.2019 19:00:00 21,5 5,8 23,2 12,3 9,9 11 6 18 10 WSW 1023,0 32 53 0,0
19.04.2019 18:00:00 22,7 5,1 26,7 12,1 9,9 8 5 19 10 WSW 1022,8 31 60 0,0
19.04.2019 17:00:00 23,1 5,5 28,3 11,9 9,9 9 5 19 11 SW 1022,8 19 60 0,0
19.04.2019 16:00:00 22,5 5,4 28,3 11,6 9,9 7 4 16 9 SSW 1023,3 20 60 0,0
19.04.2019 15:00:00 21,9 5,7 27,6 11,5 9,9 3 2 18 10 SSW 1023,9 19 60 0,0
19.04.2019 14:00:00 20,9 6,0 26,6 11,4 9,8 7 4 14 8 NNW 1024,3 34 60 0,0
19.04.2019 13:00:00 20,0 6,0 24,6 11,3 9,9 5 3 14 8 WNW 1025,0 20 60 0,0
19.04.2019 12:00:00 19,0 5,4 24,8 11,3 9,9 7 4 12 6 NW 1025,4 19 60 0,0
19.04.2019 11:00:00 19,1 5,5 24,1 11,4 9,9 3 2 14 8 WNW 1025,6 13 60 0,0
19.04.2019 10:00:00 16,8 6,0 17,8 11,4 9,8 6 3 19 10 NE 1025,6 20 60 0,0
19.04.2019 09:00:00 13,8 7,3 13,0 11,5 9,8 16 9 21 11 E 1025,7 14 60 0,0
19.04.2019 08:00:00 10,0 6,7 6,2 11,6 9,8 12 6 17 9 E 1025,7 12 51 0,0
19.04.2019 07:00:00 6,9 4,4 4,8 11,6 9,8 14 7 16 8 E 1025,4 10 0 0,0
19.04.2019 06:00:00 6,8 4,3 5,3 11,7 9,8 13 7 16 8 E 1024,9 11 0 0,0
19.04.2019 05:00:00 8,1 5,0 6,4 11,7 9,8 12 6 15 8 E 1024,5 11 0 0,0
19.04.2019 04:00:00 9,7 6,0 8,5 11,8 9,8 12 7 14 8 E 1023,9 11 0 0,0
19.04.2019 03:00:00 9,7 5,9 8,2 11,8 9,8 11 6 13 7 E 1023,9 10 0 0,0
19.04.2019 02:00:00 9,0 5,7 6,4 11,8 9,8 9 5 13 7 E 1024,1 12 0 0,0
19.04.2019 01:00:00 11,3 5,0 7,2 11,9 9,8 4 2 21 12 NNE 1023,6 12 0 0,0
19.04.2019 00:00:00 14,5 4,5 10,0 11,9 9,8 10 5 19 11 SW 1022,7 20 0 0,0
18.04.2019 23:00:00 13,2 4,3 8,0 11,8 9,8 4 2 10 5 SW 1022,3 19 0 0,0
18.04.2019 22:00:00 14,6 4,6 10,6 11,7 9,7 9 5 16 9 SSW 1021,7 24 0 0,0
18.04.2019 21:00:00 16,1 4,8 11,0 11,7 9,8 6 3 20 11 SSW 1020,8 30 0 0,0
18.04.2019 20:00:00 17,6 5,2 16,5 11,5 9,8 16 9 29 16 SW 1019,9 25 0 0,0
18.04.2019 19:00:00 18,8 5,6 19,0 11,4 9,7 18 10 32 17 SW 1019,1 27 33 0,0
18.04.2019 18:00:00 20,0 6,0 23,0 11,1 9,7 21 11 33 18 WSW 1018,5 22 60 0,0
18.04.2019 17:00:00 20,4 7,7 25,2 11,0 9,7 10 6 31 17 SW 1018,2 25 60 0,0
18.04.2019 16:00:00 20,2 6,9 26,6 10,8 9,7 18 10 30 16 SW 1018,5 41 60 0,0
18.04.2019 15:00:00 20,1 6,8 26,5 10,7 9,7 14 8 29 16 SW 1018,6 47 60 0,0
18.04.2019 14:00:00 18,9 6,7 26,8 10,6 9,7 10 6 24 13 W 1018,9 24 60 0,0
18.04.2019 13:00:00 18,6 7,4 25,7 10,6 9,7 3 2 18 10 W 1019,4 19 60 0,0
18.04.2019 12:00:00 16,6 5,2 22,4 10,6 9,7 6 3 13 7 WNW 1020,1 30 60 0,0
18.04.2019 11:00:00 16,1 6,0 21,1 10,6 9,7 4 2 13 7 S 1020,5 20 60 0,0
18.04.2019 10:00:00 14,2 7,0 15,5 10,7 9,7 8 4 16 9 E 1021,0 18 60 0,0
18.04.2019 09:00:00 10,9 7,6 10,0 10,7 9,7 12 6 18 10 ENE 1021,4 15 33 0,0
18.04.2019 08:00:00 8,2 6,7 4,6 10,8 9,7 11 6 18 10 ENE 1021,5 10 47 0,0
18.04.2019 07:00:00 5,2 4,2 3,0 10,9 9,7 15 8 18 10 E 1021,4 0,9 0 0,0
18.04.2019 06:00:00 5,2 3,8 3,4 10,9 9,7 14 8 17 9 E 1021,1 10 0 0,0
18.04.2019 05:00:00 5,1 2,8 3,1 11,0 9,7 9 5 12 6 E 1021,1 10 0 0,0
18.04.2019 04:00:00 7,1 3,9 4,4 11,0 9,7 6 4 14 8 E 1021,0 13 0 0,0
18.04.2019 03:00:00 7,8 3,8 5,4 11,1 9,6 7 4 12 6 E 1021,3 15 0 0,0
18.04.2019 02:00:00 10,4 4,5 5,4 11,1 9,6 3 2 18 10 SSE 1021,0 32 0 0,0
18.04.2019 01:00:00 11,2 4,6 7,9 11,1 9,6 11 6 25 13 SW 1021,0 32 0 0,0
18.04.2019 00:00:00 12,0 4,5 9,6 11,1 9,6 10 6 23 12 SW 1020,3 32 0 0,0
17.04.2019 23:00:00 12,7 5,6 7,1 11,0 9,6 11 6 22 12 W 1019,7 25 0 0,0
17.04.2019 22:00:00 12,7 6,1 6,9 11,0 9,6 4 2 12 7 WNW 1019,3 22 0 0,0

tt = Température de l'air
td = dewpoint
tt 5cm = Température de l'air 5cm
tt -20cm = Température de l'air -20cm
tt -100cm = Température de l'air -100cm
ff = Vitesse du vent
fx = gusts
dd = Direction du vent
ppp = reduced air pressure
vv = visibility
sd = Ensoleillement
rr = Quantités de précipitations

stations d'obs. à proximité